Showing default

SEDNA-1, 60580

Orbit data source: Space-Track

SEDNA-1, 60580 is a payload satellite owned by AAC ClydeSpace (US) in SSO that was launched on Fri, 16 Aug 2024 UTC via an FALCON 9 launch vehicle from the Air Force Western Test Range (AFWTR). Payload-class satellites include a variety of spacecraft equipped with specific instruments for various scientific and technological missions. These include communications satellites like Starlink; space stations such as the ISS; scientific satellites like the Hubble; Earth observation satellites from companies like Planet Labs, Umbra, and HawkEye 360; GPS; miniature CubeSats for education and research; and military/defense satellites.

Loading next visibility...
Identifier
60580, 2024-149DS
Orbit
SSO
Country
Flag of USUS
Related business
Manufacturer
AAC ClydeSpace
Mission
Operational Commercial Communications
Bus & Motor
CUBESAT 3U, Unknown motor
Mass
4 kg wet, 4 kg dry
Launch date (UTC)
2024-08-16 (1 year ago)
Launch vehicle
FALCON 9
Launch site
Air Force Western Test Range (AFWTR)
Object type
Payload
Rocket body
Debris
Shape & HBR
Box, 0.1 m
Radar Cross Section
0.035 m², Medium (>0.1 m² and < 1m²)

Expand to show TLE details & history
Last TLE update: 13 hours ago

TLE from 13 hours ago
0 SEDNA-1
1 60580U 24149DS  25289.21368593  .00008330  00000-0  62709-3 0  9993
2 60580  97.6881   6.2004 0011380  99.1157 261.1356 15.02718064 63699
Epoch: 2025-10-16T05:07Z
TLE epoch observation values (Epoch: 2025-10-16T05:07:42.464Z)
Latitude
-0.00001°
Longitude
-95.70316°
Altitude
562.803 km
Speed
7.579 km/s
True Right ascension
00h 24m 48s
True Declination
0° 00' 00"
Sunlit
Object was in full shadow at epoch
Visualization orbit readout
Latitude
Unknown
Longitude
Unknown
Altitude
Unknown
Speed
Unknown
Apparent Right ascension
Unknown
Apparent Declination
Unknown
Sunlit
N/A
Visualization observer readout
Local Sidereal Time
12:35:07
Azimuth
Unknown
Elevation
Unknown
Doppler factor
Unknown
Orbital elements
Apogee altitude
563.411 km
Perigee altitude
547.63 km
Semi-major axis
6,933.657 km
Eccentricity
0.00114
Inclination
97.6881°
RAAN
6.2004°
Arg. of periapsis
99.1157°
True anomaly
261.00678°
Mean anomaly
261.1356°
Eccentric anomaly
261.07119°
Mean motion
3.75924 °/min
Orbital period
95.76 mins
BSTAR
0.00062709
Loading maneuver chart data...
Computing Atmospheric mass density...
Loading historical data...
Loading historical data...
Loading historical data...
Loading historical data...
Loading historical data...
Loading historical data...
Loading historical data...

Documentation

Showing up to 5 results
|